sat.trackr.live / text

‹ back to catalog

STARLINK-3791

NORAD 52269 · 2022-041J

PAYLOAD ACTIVE UNKNOWN

§ Identity

Operator
Country
US
Launch date
2022-04-21
Launch site
AFETR
Launch vehicle
Mass (kg)
RCS (m²)

Purposes: comms

External: N2YO · Heavens-Above · Gunter

§ Orbital elements

Epoch: 2026-05-25T04:49:09.748992Z

Period
95.44 min
Inclination
53.2133°
Eccentricity
0.0001121
Mean motion
15.08839907 rev/d
Perigee alt
539.0 km
Apogee alt
540.5 km
Semi-major
6,917.9 km
B*
6.7670e-5
RAAN
125.6503°
Arg perigee
86.5153°
Mean anomaly
273.5968°
Rev number
22,591

§ Raw data

STARLINK-37911 52269U 22041J   26145.20080728  .00000789  00000+0  67670-4 0  99912 52269  53.2133 125.6503 0001121  86.5153 273.5968 15.08839907225917

JSON: /api/v1/satellites/52269 · /tle

For live sub-satellite position, see the globe view (requires WebGL).

§ Visibility from observer

Set your observer location to see the next 7 days of passes ≥ 10°. The values pass through the URL so the page stays shareable.

No JS? Fill the form by hand. The geolocation button needs JavaScript.